Hourly Data Report for January 05, 2018

All times are specified in Local Standard Time (LST). Add 1 hour to adjust for Daylight Saving Time where and when it is observed.

BARRIE-ORO
ONTARIO

44°29'00.000" N
79°33'00.000" W
289.00 m
6117700
71314
XBI

Download Data

Hourly Data (January 2018)
Hourly Data Report for January 5, 2018
Temp Definition
°C
Dew Point Temp Definition
°C
Rel Hum Definition
%
Wind Dir Definition
10's deg

Wind Spd Definition
km/h
Visibility Definition
km
Stn Press Definition
kPa
Hmdx Definition


Wind Chill Definition


Weather Definition


TIME
00:00 -24.1 -27.9 70 33 27   97.77   -37 LegendNANA
01:00 -24.7 -28.5 70 33 25   97.79   -38 LegendNANA
02:00 -24.7 -28.6 70 33 27   97.82   -38 LegendNANA
03:00 -25.2 -29.0 71 33 21   97.86   -37 LegendNANA
04:00 -25.6 -29.2 71 32 25   97.88   -39 LegendNANA
05:00 -26.0 -29.7 71 33 17   97.90   -37 LegendNANA
06:00 -26.2 -30.0 70 32 22   97.93   -39 LegendNANA
07:00 -26.2 -30.0 70 32 24   98.02   -39 LegendNANA
08:00 -26.5 -30.3 70 32 19   98.08   -38 LegendNANA
09:00 -26.3 -30.4 68 33 21   98.13   -39 LegendNANA
10:00 -25.7 -30.5 64 33 20   98.17   -38 LegendNANA
11:00 -24.4 -29.7 62 33 16   98.21   -35 LegendNANA
12:00 -22.9 -28.2 62 31 24   98.17   -35 LegendNANA
13:00 -21.6 -26.7 64 30 30   98.14   -35 LegendNANA
14:00 -20.7 -25.7 64 31 30   98.17   -33 LegendNANA
15:00 -20.4 -25.8 62 31 21   98.20   -31 LegendNANA
16:00 -20.7 -25.2 67 31 26   98.26   -33 LegendNANA
17:00 -21.2 -24.9 72 32 19   98.30   -32 LegendNANA
18:00 -21.7 -25.0 75 33 19   98.31   -32 LegendNANA
19:00 -21.7 -24.8 76 33 16   98.36   -31 LegendNANA
20:00 -21.9 -26.2 68 34 18   98.37   -32 LegendNANA
21:00 -22.9 -27.6 65 35 26   98.40   -36 LegendNANA
22:00 -23.9 -28.6 65 34 25   98.49   -37 LegendNANA
23:00 -24.7 -29.2 66 32 22   98.54   -37 LegendNANA

Notes on Data Quality.

Legend

  • E = Estimated
  • M = Missing
  • NA = Not Available
  • ‡ = Partner data that is not subject to review by the National Climate Archives
Date modified: